Mojave, CA

3:12 AM PDT on March 24, 2017 (GMT -0700)
Mojave

Weather History for KMHV - July, 2013

Change the Weather History Date:

Wednesday, July 10, 2013

  Actual Average Record
Temperature  
Mean Temperature 90 °F -  
Max Temperature 100 °F 95 °F 107 °F (2002)
Min Temperature 80 °F 67 °F 47 °F (1979)
Cooling Degree Days 25    
Growing Degree Days 40 (Base 50)    
Moisture  
Dew Point 37 °F    
Average Humidity 17    
Maximum Humidity 30    
Minimum Humidity 9    
Precipitation  
Precipitation 0.00 in - - ()
Sea Level Pressure  
Sea Level Pressure 30.00 in    
Wind  
Wind Speed 13 mph (West)    
Max Wind Speed 36 mph    
Max Gust Speed 41 mph    
Visibility 10 miles    
Events      
Averages and records for this station are not official NWS values.
T = Trace of Precipitation, MM = Missing Value Source: NWS Daily Summary

Daily Weather History Graph

Daily Weather History Graph

Search for Another Location

Airport or City:

Trip Planner

Search our weather history database for the weather conditions in past years. The results will help you decide how hot, cold, wet, or windy it might be!

Date:

Astronomy

Jul. 10, 2013 Rise Set
Actual Time 5:46 AM PDT 8:08 PM PDT
Civil Twilight 5:17 AM PDT 8:38 PM PDT
Nautical Twilight 4:41 AM PDT 9:13 PM PDT
Astronomical Twilight 4:02 AM PDT 9:53 PM PDT
Moon 8:05 AM PDT (7/10) 9:29 PM PDT (7/10)
Length of Visible Light 15h 20m
Length of Day
14h 21m
Waxing Crescent, 6% of the Moon is Illuminated
Jul 10
Waxing Crescent
Jul 15
First Quarter
Jul 22
Full
Jul 29
Last Quarter
Aug 6
New

Hourly Weather History & Observations

Time (PDT) Temp. Dew Point Humidity Pressure Visibility Wind Dir Wind Speed Gust Speed Precip Events Conditions
12:15 AM 84.2 °F 41.0 °F 22% 30.05 in 10.0 mi West 11.5 mph - N/A   Clear
12:35 AM 84.2 °F 39.2 °F 20% 30.05 in 10.0 mi West 10.4 mph - N/A   Clear
12:55 AM 84.2 °F 35.6 °F 18% 30.05 in 10.0 mi West 8.1 mph - N/A   Clear
1:15 AM 84.2 °F 35.6 °F 18% 30.05 in 10.0 mi West 6.9 mph - N/A   Clear
1:35 AM 84.2 °F 35.6 °F 18% 30.04 in 10.0 mi West 6.9 mph - N/A   Clear
1:55 AM 84.2 °F 35.6 °F 18% 30.04 in 10.0 mi NW 8.1 mph - N/A   Clear
2:15 AM 82.4 °F 35.6 °F 19% 30.04 in 10.0 mi South 3.5 mph - N/A   Clear
2:35 AM 84.2 °F 35.6 °F 18% 30.04 in 10.0 mi SW 4.6 mph - N/A   Clear
2:55 AM 82.4 °F 37.4 °F 20% 30.03 in 10.0 mi WSW 5.8 mph - N/A   Clear
3:15 AM 82.4 °F 37.4 °F 20% 30.03 in 10.0 mi SSW 4.6 mph - N/A   Clear
3:35 AM 82.4 °F 35.6 °F 19% 30.03 in 10.0 mi SW 3.5 mph - N/A   Clear
3:55 AM 82.4 °F 37.4 °F 20% 30.03 in 10.0 mi South 10.4 mph - N/A   Clear
4:15 AM 82.4 °F 37.4 °F 20% 30.03 in 10.0 mi South 9.2 mph - N/A   Clear
4:35 AM 84.2 °F 37.4 °F 19% 30.03 in 10.0 mi SSW 9.2 mph - N/A   Clear
4:55 AM 84.2 °F 37.4 °F 19% 30.03 in 10.0 mi SSW 9.2 mph - N/A   Clear
5:15 AM 84.2 °F 37.4 °F 19% 30.03 in 10.0 mi SW 13.8 mph - N/A   Clear
5:35 AM 84.2 °F 39.2 °F 20% 30.03 in 10.0 mi WSW 13.8 mph - N/A   Clear
5:55 AM 82.4 °F 39.2 °F 21% 30.03 in 10.0 mi West 11.5 mph - N/A   Clear
6:15 AM 84.2 °F 39.2 °F 20% 30.03 in 10.0 mi SW 11.5 mph - N/A   Clear
6:35 AM 84.2 °F 39.2 °F 20% 30.03 in 10.0 mi WSW 11.5 mph - N/A   Clear
6:55 AM 84.2 °F 39.2 °F 20% 30.04 in 10.0 mi WSW 11.5 mph - N/A   Clear
7:15 AM 84.2 °F 39.2 °F 20% 30.04 in 10.0 mi WSW 11.5 mph - N/A   Clear
7:35 AM 86.0 °F 39.2 °F 19% 30.04 in 10.0 mi West 17.3 mph - N/A   Clear
7:55 AM 86.0 °F 39.2 °F 19% 30.04 in 10.0 mi West 13.8 mph - N/A   Clear
8:15 AM 86.0 °F 39.2 °F 19% 30.05 in 10.0 mi West 13.8 mph 20.7 mph N/A   Clear
8:35 AM 87.8 °F 37.4 °F 17% 30.05 in 10.0 mi West 16.1 mph - N/A   Clear
8:55 AM 87.8 °F 35.6 °F 16% 30.05 in 10.0 mi West 17.3 mph - N/A   Clear
9:15 AM 87.8 °F 37.4 °F 17% 30.04 in 10.0 mi West 17.3 mph - N/A   Clear
9:35 AM 89.6 °F 35.6 °F 15% 30.03 in 10.0 mi West 18.4 mph - N/A   Clear
9:55 AM 91.4 °F 33.8 °F 13% 30.04 in 10.0 mi West 17.3 mph - N/A   Clear
10:15 AM 93.2 °F 33.8 °F 12% 30.03 in 10.0 mi West 17.3 mph 20.7 mph N/A   Clear
10:35 AM 98.6 °F 32.0 °F 10% 30.02 in 10.0 mi West 20.7 mph 25.3 mph N/A   Partly Cloudy
10:55 AM - - N/A% 30.02 in 10.0 mi North - - N/A   Unknown
11:15 AM 93.2 °F 33.8 °F 12% 30.02 in 10.0 mi West 18.4 mph 25.3 mph N/A   Unknown
11:35 AM 93.2 °F 33.8 °F 12% 30.02 in 10.0 mi West 12.7 mph - N/A   Clear
11:55 AM 95.0 °F 33.8 °F 12% 30.01 in 10.0 mi WNW 20.7 mph 25.3 mph N/A   Clear
12:15 PM 95.0 °F 33.8 °F 12% 30.01 in 10.0 mi West 19.6 mph 27.6 mph N/A   Partly Cloudy
12:35 PM 98.6 °F 35.6 °F 11% 30.00 in 10.0 mi WNW 18.4 mph 26.5 mph N/A   Clear
12:55 PM 98.6 °F 35.6 °F 11% 30.00 in 10.0 mi West 19.6 mph - N/A   Clear
1:15 PM 98.6 °F 35.6 °F 11% 29.99 in 10.0 mi WNW 19.6 mph 28.8 mph N/A   Clear
1:35 PM 98.6 °F 35.6 °F 11% 29.99 in 10.0 mi West 19.6 mph 24.2 mph N/A   Partly Cloudy
1:55 PM 100.4 °F 33.8 °F 10% 29.99 in 10.0 mi WNW 18.4 mph - N/A   Clear
2:15 PM 100.4 °F 32.0 °F 9% 29.99 in 10.0 mi West 17.3 mph 24.2 mph N/A   Partly Cloudy
2:35 PM 98.6 °F 33.8 °F 10% 29.98 in 10.0 mi WNW 23.0 mph 26.5 mph N/A   Clear
2:55 PM 96.8 °F 33.8 °F 11% 29.98 in 10.0 mi West 20.7 mph 26.5 mph N/A   Clear
3:15 PM 95.0 °F 32.0 °F 11% 29.98 in 10.0 mi West 10.4 mph - N/A   Clear
3:35 PM 95.0 °F 32.0 °F 11% 29.97 in 10.0 mi WNW 12.7 mph 25.3 mph N/A   Clear
3:55 PM 95.0 °F 32.0 °F 11% 29.97 in 10.0 mi West 16.1 mph 20.7 mph N/A   Clear
4:15 PM 95.0 °F 32.0 °F 11% 29.97 in 10.0 mi West 19.6 mph 25.3 mph N/A   Clear
4:35 PM 95.0 °F 32.0 °F 11% 29.97 in 10.0 mi West 18.4 mph 25.3 mph N/A   Clear
4:55 PM 95.0 °F 32.0 °F 11% 29.97 in 10.0 mi West 16.1 mph 25.3 mph N/A   Clear
5:15 PM 93.2 °F 32.0 °F 11% 29.96 in 10.0 mi WNW 16.1 mph 20.7 mph N/A   Clear
5:35 PM 93.2 °F 32.0 °F 11% 29.94 in 10.0 mi WNW 17.3 mph 20.7 mph N/A   Clear
5:55 PM 93.2 °F 32.0 °F 11% 29.94 in 10.0 mi West 13.8 mph 20.7 mph N/A   Clear
6:15 PM 91.4 °F 33.8 °F 13% 29.94 in 10.0 mi WNW 18.4 mph 24.2 mph N/A   Clear
6:35 PM 91.4 °F 35.6 °F 14% 29.94 in 10.0 mi West 21.9 mph 29.9 mph N/A   Clear
6:55 PM 89.6 °F 39.2 °F 17% 29.94 in 10.0 mi West 20.7 mph 27.6 mph N/A   Clear
7:15 PM 89.6 °F 41.0 °F 18% 29.94 in 10.0 mi West 23.0 mph 28.8 mph N/A   Clear
7:35 PM 87.8 °F 41.0 °F 19% 29.94 in 10.0 mi West 23.0 mph 27.6 mph N/A   Clear
7:55 PM 87.8 °F 41.0 °F 19% 29.94 in 10.0 mi West 18.4 mph 31.1 mph N/A   Clear
8:15 PM 87.8 °F 41.0 °F 19% 29.95 in 10.0 mi West 12.7 mph 27.6 mph N/A   Clear
8:35 PM 86.0 °F 41.0 °F 20% 29.95 in 10.0 mi WNW 23.0 mph 27.6 mph N/A   Clear
8:55 PM 86.0 °F 39.2 °F 19% 29.97 in 10.0 mi West 18.4 mph 26.5 mph N/A   Clear
9:15 PM 86.0 °F 41.0 °F 20% 29.99 in 10.0 mi West 13.8 mph 24.2 mph N/A   Partly Cloudy
9:35 PM 84.2 °F 44.6 °F 25% 29.98 in 10.0 mi WNW 16.1 mph 21.9 mph N/A   Partly Cloudy
9:55 PM 84.2 °F 42.8 °F 23% 29.97 in 10.0 mi West 25.3 mph 32.2 mph N/A   Scattered Clouds
10:15 PM 86.0 °F 39.2 °F 19% 29.98 in 10.0 mi West 21.9 mph 31.1 mph N/A   Scattered Clouds
10:35 PM 82.4 °F 46.4 °F 28% 29.99 in 8.0 mi West 23.0 mph 32.2 mph N/A   Mostly Cloudy
10:55 PM 82.4 °F 44.6 °F 26% 29.97 in 10.0 mi West 31.1 mph 35.7 mph N/A   Mostly Cloudy
11:15 PM 80.6 °F 46.4 °F 30% 29.93 in 9.0 mi West 35.7 mph 41.4 mph N/A   Mostly Cloudy
11:35 PM 82.4 °F 42.8 °F 25% 29.95 in 10.0 mi West 26.5 mph 36.8 mph N/A   Partly Cloudy
11:55 PM 84.2 °F 41.0 °F 22% 29.94 in 10.0 mi West 32.2 mph 38.0 mph N/A   Clear